Tiempo cada hora Almazovo

Hoy, 3 Agosto, Martes

Tiempo Temperatura Precipitaciones Viento Presión Humedad
00:00 +27°C° 0 mm 2 mps 747 mmHg 36%
01:00 +26°C° 0 mm 2 mps 747 mmHg 39%
02:00 +26°C° 0 mm 2 mps 747 mmHg 42%
03:00 +25°C° 0 mm 2 mps 748 mmHg 45%
04:00 +25°C° 0 mm 2 mps 748 mmHg 47%
05:00 +26°C° 0 mm 2 mps 748 mmHg 50%
06:00 +26°C° 0 mm 1 mps 748 mmHg 52%
07:00 +28°C° 0 mm 2 mps 748 mmHg 47%
08:00 +30°C° 0 mm 2 mps 748 mmHg 42%
09:00 +33°C° 0 mm 3 mps 748 mmHg 38%
10:00 +34°C° 0 mm 4 mps 748 mmHg 36%
11:00 +35°C° 0 mm 4 mps 748 mmHg 34%
12:00 +36°C° 0 mm 5 mps 748 mmHg 32%
13:00 +36°C° 0 mm 5 mps 748 mmHg 33%
14:00 +35°C° 0 mm 5 mps 748 mmHg 35%
15:00 +35°C° 0 mm 5 mps 748 mmHg 36%
16:00 +33°C° 0 mm 5 mps 748 mmHg 42%
17:00 +32°C° 0 mm 4 mps 749 mmHg 48%
18:00 +29°C° 0 mm 4 mps 749 mmHg 54%
19:00 +27°C° 1 mm 3 mps 749 mmHg 64%
20:00 +25°C° 1 mm 2 mps 749 mmHg 75%
21:00 +23°C° 1 mm 2 mps 750 mmHg 85%
22:00 +23°C° 0.1 mm 2 mps 749 mmHg 86%
23:00 +23°C° 0.1 mm 2 mps 749 mmHg 88%

Mañana, 4 Agosto, Miércoles

Tiempo Temperatura Precipitaciones Viento Presión Humedad
00:00 +22°C° 0.1 mm 1 mps 749 mmHg 89%
01:00 +22°C° 0 mm 1 mps 749 mmHg 89%
02:00 +22°C° 0 mm 1 mps 750 mmHg 89%
03:00 +22°C° 0 mm 1 mps 750 mmHg 89%
04:00 +22°C° 0.5 mm 1 mps 750 mmHg 89%
05:00 +21°C° 0.5 mm 2 mps 750 mmHg 90%
06:00 +20°C° 0.5 mm 2 mps 750 mmHg 90%
07:00 +21°C° 0.5 mm 2 mps 750 mmHg 84%
08:00 +24°C° 0.5 mm 2 mps 751 mmHg 77%
09:00 +25°C° 0.5 mm 2 mps 751 mmHg 70%
10:00 +26°C° 0.2 mm 2 mps 751 mmHg 64%
11:00 +27°C° 0.2 mm 2 mps 751 mmHg 58%
12:00 +28°C° 0.2 mm 3 mps 751 mmHg 53%
13:00 +29°C° 0.2 mm 3 mps 751 mmHg 51%
14:00 +29°C° 0.2 mm 4 mps 751 mmHg 49%
15:00 +29°C° 0.2 mm 4 mps 751 mmHg 47%
16:00 +27°C° 0.1 mm 4 mps 751 mmHg 50%
17:00 +26°C° 0.1 mm 4 mps 751 mmHg 52%
18:00 +23°C° 0.1 mm 5 mps 752 mmHg 55%
19:00 +23°C° 0 mm 4 mps 752 mmHg 55%
20:00 +22°C° 0 mm 3 mps 752 mmHg 55%
21:00 +23°C° 0 mm 2 mps 752 mmHg 55%
22:00 +21°C° 0 mm 2 mps 752 mmHg 56%
23:00 +21°C° 0 mm 2 mps 752 mmHg 56%

Pasado mañana, 5 Agosto, Jueves

Tiempo Temperatura Precipitaciones Viento Presión Humedad
00:00 +20°C° 0 mm 2 mps 752 mmHg 56%
01:00 +20°C° 0 mm 2 mps 752 mmHg 57%
02:00 +19°C° 0 mm 2 mps 753 mmHg 58%
03:00 +18°C° 0 mm 2 mps 753 mmHg 58%
04:00 +18°C° 0 mm 2 mps 753 mmHg 59%
05:00 +18°C° 0 mm 2 mps 753 mmHg 59%
06:00 +18°C° 0 mm 2 mps 753 mmHg 59%
07:00 +20°C° 0 mm 2 mps 754 mmHg 53%
08:00 +24°C° 0 mm 2 mps 754 mmHg 46%
09:00 +26°C° 0 mm 2 mps 754 mmHg 40%
10:00 +27°C° 0 mm 2 mps 754 mmHg 37%
11:00 +28°C° 0 mm 2 mps 754 mmHg 34%
12:00 +29°C° 0 mm 2 mps 753 mmHg 30%
13:00 +29°C° 0 mm 2 mps 753 mmHg 30%
14:00 +30°C° 0 mm 2 mps 753 mmHg 29%
15:00 +30°C° 0 mm 3 mps 753 mmHg 28%
16:00 +29°C° 0 mm 3 mps 753 mmHg 30%
17:00 +29°C° 0 mm 3 mps 753 mmHg 33%
18:00 +28°C° 0 mm 3 mps 753 mmHg 35%
19:00 +26°C° 0 mm 3 mps 753 mmHg 39%
20:00 +24°C° 0 mm 3 mps 753 mmHg 44%
21:00 +21°C° 0 mm 3 mps 753 mmHg 48%
22:00 +21°C° 0 mm 3 mps 753 mmHg 49%
23:00 +20°C° 0 mm 3 mps 753 mmHg 49%

6 Agosto, Viernes

Tiempo Temperatura Precipitaciones Viento Presión Humedad
00:00 +20°C° 0 mm 3 mps 753 mmHg 50%
01:00 +19°C° 0 mm 3 mps 753 mmHg 51%
02:00 +19°C° 0 mm 3 mps 753 mmHg 52%
03:00 +18°C° 0 mm 3 mps 752 mmHg 53%
04:00 +19°C° 0 mm 2 mps 753 mmHg 54%
05:00 +19°C° 0 mm 2 mps 753 mmHg 55%
06:00 +19°C° 0 mm 2 mps 753 mmHg 56%
07:00 +21°C° 0 mm 2 mps 753 mmHg 50%
08:00 +25°C° 0 mm 2 mps 753 mmHg 43%
09:00 +27°C° 0 mm 2 mps 753 mmHg 37%
10:00 +28°C° 0 mm 2 mps 753 mmHg 34%
11:00 +30°C° 0 mm 2 mps 752 mmHg 32%
12:00 +31°C° 0 mm 1 mps 752 mmHg 29%
13:00 +31°C° 0 mm 2 mps 752 mmHg 28%
14:00 +32°C° 0 mm 2 mps 752 mmHg 27%
15:00 +32°C° 0 mm 2 mps 751 mmHg 26%
16:00 +32°C° 0 mm 2 mps 751 mmHg 28%
17:00 +31°C° 0 mm 2 mps 751 mmHg 30%
18:00 +31°C° 0 mm 3 mps 751 mmHg 31%
19:00 +29°C° 0 mm 3 mps 751 mmHg 34%
20:00 +27°C° 0 mm 3 mps 751 mmHg 37%
21:00 +25°C° 0 mm 3 mps 751 mmHg 40%
22:00 +24°C° 0 mm 3 mps 751 mmHg 41%
23:00 +22°C° 0 mm 3 mps 751 mmHg 41%

7 Agosto, Sábado

Tiempo Temperatura Precipitaciones Viento Presión Humedad
00:00 +22°C° 0 mm 3 mps 751 mmHg 41%
01:00 +21°C° 0 mm 3 mps 751 mmHg 43%
02:00 +21°C° 0 mm 3 mps 751 mmHg 45%
03:00 +20°C° 0 mm 3 mps 751 mmHg 47%
04:00 +20°C° 0 mm 3 mps 751 mmHg 48%
05:00 +21°C° 0 mm 3 mps 751 mmHg 49%
06:00 +21°C° 0 mm 3 mps 751 mmHg 49%
07:00 +23°C° 0 mm 4 mps 751 mmHg 44%
08:00 +26°C° 0 mm 5 mps 752 mmHg 39%
09:00 +29°C° 0 mm 5 mps 752 mmHg 33%
10:00 +30°C° 0 mm 5 mps 752 mmHg 30%
11:00 +33°C° 0 mm 5 mps 751 mmHg 27%
12:00 +34°C° 0 mm 5 mps 751 mmHg 24%
13:00 +34°C° 0 mm 5 mps 751 mmHg 23%
14:00 +35°C° 0 mm 5 mps 751 mmHg 22%
15:00 +35°C° 0 mm 5 mps 751 mmHg 22%
16:00 +34°C° 0 mm 4 mps 751 mmHg 23%
17:00 +33°C° 0 mm 4 mps 751 mmHg 25%
18:00 +33°C° 0 mm 3 mps 751 mmHg 27%
19:00 +29°C° 0 mm 3 mps 751 mmHg 31%
20:00 +27°C° 0 mm 3 mps 751 mmHg 35%
21:00 +25°C° 0 mm 3 mps 751 mmHg 40%
22:00 +25°C° 0 mm 4 mps 751 mmHg 39%
23:00 +23°C° 0 mm 4 mps 751 mmHg 38%

8 Agosto, Domingo

Tiempo Temperatura Precipitaciones Viento Presión Humedad
00:00 +23°C° 0 mm 4 mps 751 mmHg 37%
01:00 +23°C° 0 mm 4 mps 751 mmHg 38%
02:00 +23°C° 0 mm 4 mps 751 mmHg 38%
03:00 +23°C° 0 mm 4 mps 751 mmHg 38%
04:00 +23°C° 0 mm 4 mps 752 mmHg 38%
05:00 +23°C° 0 mm 4 mps 752 mmHg 39%
06:00 +24°C° 0 mm 3 mps 752 mmHg 39%
07:00 +25°C° 0 mm 4 mps 752 mmHg 36%
08:00 +27°C° 0 mm 4 mps 752 mmHg 34%
09:00 +29°C° 0 mm 4 mps 752 mmHg 31%
10:00 +30°C° 0 mm 4 mps 752 mmHg 29%
11:00 +33°C° 0 mm 4 mps 752 mmHg 26%
12:00 +34°C° 0 mm 5 mps 753 mmHg 24%
13:00 +35°C° 0 mm 4 mps 753 mmHg 24%
14:00 +35°C° 0 mm 4 mps 753 mmHg 24%
15:00 +35°C° 0 mm 4 mps 753 mmHg 24%
16:00 +33°C° 0 mm 4 mps 753 mmHg 25%
17:00 +32°C° 0 mm 4 mps 753 mmHg 27%
18:00 +30°C° 0 mm 4 mps 753 mmHg 28%
19:00 +30°C° 0 mm 3 mps 753 mmHg 29%
20:00 +29°C° 0 mm 3 mps 753 mmHg 30%
21:00 +28°C° 0 mm 3 mps 753 mmHg 31%
22:00 +28°C° 0 mm 3 mps 754 mmHg 33%
23:00 +28°C° 0 mm 3 mps 754 mmHg 36%
Mostrar más

Necesitamos Su Consentimiento

Meteoprog y nuestros Proveedores de Servicios pueden almacenar y acceder a sus datos personales como cookies, identificadores de dispositivo u otras tecnologías similares de su dispositivo y procesar dichos datos para personalizar contenido y anuncios, además de ofrecer funciones de redes sociales y analizar el tráfico.

  • Almacenar y/o acceder a información en su dispositivo

    Se puede almacenar o acceder a cookies, identificadores de dispositivo u otra información de su dispositivo para los fines anteriormente indicados.

  • Anuncios y contenido personalizados, medición de anuncios y contenido, percepciones del público, y desarrollo de productos

    Los anuncios y el contenido pueden personalizarse en base a su perfil. Se pueden añadir más datos para personalizar mejor los anuncios y contenidos. Se puede medir el rendimiento de los anuncios y contenidos. Se puede obtener la percepción sobre el público que ha visto los anuncios y contenidos. Dichos datos pueden usarse para desarrollar o mejorar la experiencia del usuario, sistemas y software.

Al hacer clic en ‘Estoy De Acuerdo’ usted permitirá el uso de las cookies, identificadores de dispositivo, balizas web u otras tecnologías similares indicadas. Su configuración puede cambiarse desde el navegador de su dispositivo.

Para ciertos fines, los intereses legítimos pueden ser considerados por encima del consentimiento. Puede leer más sobre ello en nuestra Política de Privacidad y Cookies.